Location: Strawberry
(45.6646°N, 111.9596°W)
Time: 19:21:09
(UTC+00:00)

RS-15 - Pass Details

Date: 04 December 2022
Orbit: 1883 x 2162 km, 64.8° (Epoch: 08 February)

Event Time Altitude Azimuth Distance (km) Brightness Sun altitude
Rises 04:07:06 0° 323° (NW) 5,682 11.0 -44.9°
Reaches altitude 10° 04:10:35 10° 322° (NW) 4,659 10.4 -45.5°
Enters shadow 04:20:35 65° 306° (NW) 2,253 8.2 -47.2°
